Location: 相模原市立博物館
(35.5593°N, 139.3931°E)
Time: 05:11:05
(UTC+09:00)

SO-50 - Visible Passes

Search period start: 23 January 2022 00:00
Search period end: 02 February 2022 00:00
Orbit: 595 x 689 km, 64.6° (Epoch: 22 January)

Date Brightness Start Highest point End Pass type
(mag) Time Alt. Az. Time Alt. Az. Time Alt. Az.
23 Jan ? 04:32:21 22° S 04:32:21 22° S 04:34:09 10° S visible
23 Jan ? 18:35:22 10° SSW 18:39:51 78° WNW 18:42:00 31° NNE visible
24 Jan ? 17:20:52 10° SSE 17:24:29 24° ESE 17:28:12 10° ENE visible
24 Jan ? 19:00:44 10° WSW 19:04:44 31° NW 19:06:56 21° N visible
25 Jan ? 17:44:33 10° SSW 17:49:00 67° ESE 17:53:35 10° NE visible
25 Jan ? 19:27:27 10° WNW 19:29:54 14° NW 19:31:46 12° NNW visible
26 Jan ? 18:09:26 10° SW 18:13:45 46° NW 18:18:13 10° NNE visible
27 Jan ? 18:35:24 10° W 18:38:47 20° NW 18:42:14 10° N visible
29 Jan ? 17:43:46 10° WSW 17:47:42 29° NW 17:51:46 10° N visible
30 Jan ? 18:10:38 10° WNW 18:12:54 13° NW 18:15:12 10° NNW visible
